Weather History for Pasco, WA

Change the Weather History Date:

Saturday, December 3, 2011

  Actual Average Record
Temperature  
Mean Temperature 33 °F 35 °F  
Max Temperature 49 °F 42 °F 67 °F (2007)
Min Temperature 16 °F 28 °F 16 °F (2011)
Degree Days  
Heating Degree Days 32 30  
Month to date heating degree days 94 88  
Since 1 July heating degree days 1256 1317  
Cooling Degree Days 0 0  
Month to date cooling degree days 0 0  
Year to date cooling degree days 632 710  
Moisture  
Dew Point 23 °F    
Average Humidity 67    
Maximum Humidity 92    
Minimum Humidity 42    
Precipitation  
Precipitation 0.00 in 0.03 in 0.22 in (1982)
Month to date precipitation 0.00 0.09  
Year to date precipitation 6.13 7.71  
Snow  
Snow 0.00 in - - ()
Snow Depth 0.00 in    
Sea Level Pressure  
Sea Level Pressure 30.41 in    
Wind  
Wind Speed 3 mph (NW)    
Max Wind Speed 16 mph    
Max Gust Speed 20 mph    
Visibility 10 miles    
Events      
T = Trace of Precipitation, MM = Missing Value Source: NWS Daily Summary

Daily Weather History Graph

Daily Weather History Graph

Search for Another Location

Airport:

Trip Planner

Search our weather history database for the weather conditions in past years. The results will help you decide how hot, cold, wet, or windy it might be!

Date:

Astronomy

Dec. 03, 2011 Rise Set
Actual Time 7:20 AM PST 4:11 PM PST
Civil Twilight 6:46 AM PST 4:45 PM PST
Nautical Twilight 6:09 AM PST 5:23 PM PST
Astronomical Twilight 5:32 AM PST 5:59 PM PST
Moon 12:35 PM PST (12/3) 12:35 AM PST (12/3)
Length of Visible Light 9h 58m
Length of Day
8h 50m
Waxing Gibbous, 63% of the Moon is Illuminated
Dec 3
Waxing Gibbous
Dec 10
Full
Dec 17
Last Quarter
Dec 24
New
Dec 31
First Quarter

Hourly Weather History & Observations

Time (PST) Temp. Windchill Dew Point Humidity Pressure Visibility Wind Dir Wind Speed Gust Speed Precip Events Conditions
12:53 AM 18.0 °F 11.1 °F 16.0 °F 92% 30.45 in 10.0 mi East 4.6 mph - N/A   Unknown
1:53 AM 19.0 °F - 17.1 °F 92% 30.46 in 10.0 mi Calm Calm - N/A   Unknown
2:53 AM 19.0 °F - 16.0 °F 88% 30.46 in 10.0 mi Calm Calm - N/A   Unknown
3:53 AM 17.1 °F 10.0 °F 15.1 °F 92% 30.47 in 10.0 mi North 4.6 mph - N/A   Unknown
4:53 AM 18.0 °F 12.7 °F 16.0 °F 92% 30.46 in 10.0 mi NNE 3.5 mph - N/A   Clear
5:53 AM 17.1 °F - 15.1 °F 92% 30.46 in 10.0 mi Calm Calm - N/A   Clear
6:53 AM 18.0 °F - 15.1 °F 88% 30.46 in 10.0 mi Calm Calm - N/A   Clear
7:53 AM 19.0 °F - 16.0 °F 88% 30.45 in 10.0 mi Calm Calm - N/A   Scattered Clouds
8:53 AM 33.1 °F 30.0 °F 28.0 °F 82% 30.45 in 10.0 mi SSE 3.5 mph - N/A   Mostly Cloudy
9:53 AM 37.9 °F 30.0 °F 28.0 °F 68% 30.44 in 10.0 mi South 12.7 mph - N/A   Clear
10:53 AM 41.0 °F 34.7 °F 27.0 °F 57% 30.41 in 10.0 mi SSW 10.4 mph - N/A   Overcast
12:53 PM 46.9 °F - 27.0 °F 46% 30.37 in 10.0 mi WNW 4.6 mph - N/A   Overcast
1:53 PM 48.0 °F - 27.0 °F 44% 30.34 in 10.0 mi Calm Calm - N/A   Overcast
2:53 PM 46.9 °F - 27.0 °F 46% 30.33 in 10.0 mi North 4.6 mph - N/A   Partly Cloudy
3:53 PM 45.0 °F 43.5 °F 27.0 °F 49% 30.34 in 10.0 mi North 3.5 mph - N/A   Clear
4:53 PM 37.9 °F - 27.0 °F 65% 30.35 in 10.0 mi Calm Calm - N/A   Clear
5:53 PM 34.0 °F - 27.0 °F 75% 30.36 in 10.0 mi Calm Calm - N/A   Overcast
6:53 PM 34.0 °F - 27.0 °F 75% 30.36 in 10.0 mi Calm Calm - N/A   Overcast
7:53 PM 33.1 °F 26.1 °F 26.1 °F 75% 30.37 in 10.0 mi NW 8.1 mph - N/A   Mostly Cloudy
8:53 PM 33.1 °F - 25.0 °F 72% 30.38 in 10.0 mi Calm Calm - N/A   Mostly Cloudy
9:53 PM 32.0 °F 25.6 °F 24.1 °F 73% 30.39 in 10.0 mi WSW 6.9 mph - N/A   Mostly Cloudy
10:53 PM 32.0 °F 28.7 °F 25.0 °F 75% 30.41 in 10.0 mi West 3.5 mph - N/A   Scattered Clouds
11:53 PM 28.0 °F - 23.0 °F 81% 30.40 in 10.0 mi Calm Calm - N/A   Partly Cloudy